Location: Unspecified
(0.0000°N, 0.0000°E)
Time: 14:04:10
(UTC+00:00)

Vanguard 3 - Pass Details

Date: 25 November 2019
Orbit: 508 x 3263 km, 33.3° (Epoch: 08 December)

Event Time Altitude Azimuth Distance (km) Brightness Sun altitude
Rises 09:05:53 0° 243° (WSW) 4,285 10.6 45.6°
Reaches altitude 10° 09:08:17 10° 246° (WSW) 3,594 10.3 46.1°
Maximum altitude 09:18:05 67° 327° (NNW) 2,283 9.9 48.2°
Drops below altitude 10° 09:35:06 10° 47° (NE) 5,886 11.8 51.7°
Sets 09:40:19 0° 50° (NE) 7,105 12.1 52.8°
